Temperature
17 17 18 18 18 18 18 17 17 18 18 17 16 17 17 17 17 17 17 17 17 17 17 17 17 17 17 17 17 17 17 17 17 17 17 17 17 17 17 17 17 18 17
17 17 17 18 18 18 17 17 17 18 17 17 17 17 17 17 17 17 17 17 17 17 17 17 17 17 17 17 17 17 17 17 17 17 17 17 17 17 17 17 17 17 17
17 17 17 18 18 18 17 17 17 18 17 17 17 17 17 17 17 17 17 17 17 17 17 17 17 17 17 17 17 17 17 17 17 17 17 17 17 17 17 17 17 17 17
18 18 17 17 17 17 17 17 17 18 17 17 17 17 16 16 17 17 17 17 17 17 16 16 16 16 17 17 17 17 17 17 17 17 16 16 16 16 16 16 16 17 17
18 18 18 18 17 17 17 17 17 17 17 17 17 16 16 16 16 16 16 17 17 17 17 17 17 17 17 17 16 16 16 17 17 16 16 16 16 16 16 16 16 16 17
18 18 18 18 17 17 17 17 17 17 17 17 17 16 16 16 16 16 16 16 17 17 17 17 17 17 17 17 16 16 16 16 16 16 16 16 16 16 16 16 16 16 16
18 18 18 18 17 17 17 17 17 17 17 17 16 16 16 16 16 16 16 16 16 16 16 16 17 17 17 17 17 16 16 16 16 16 16 16 16 16 16 16 16 16 16
18 18 18 18 17 17 17 17 17 17 17 16 16 16 16 16 15 16 16 16 16 16 16 16 16 16 16 16 16 16 16 16 16 16 16 16 16 16 16 16 16 16 15
18 17 17 17 17 17 17 17 17 17 17 16 16 16 16 16 16 16 16 16 16 16 16 16 16 16 16 16 16 16 16 16 16 16 16 16 16 16 16 16 16 16 15
17 17 17 17 17 17 17 17 17 17 17 17 16 16 16 16 16 16 16 16 16 16 16 16 16 15 15 16 16 16 16 16 16 16 16 16 16 16 16 16 16 15 15
17 17 17 17 16 16 16 16 16 16 17 16 16 16 16 16 16 16 16 16 16 16 15 15 15 15 15 15 15 16 16 16 16 16 16 16 16 16 15 15 15 15 15
17 17 17 17 16 16 16 16 16 16 16 16 16 16 16 16 16 16 16 16 16 16 16 15 15 16 16 15 15 15 15 16 16 16 16 16 16 16 15 15 15 15 15
17 17 16 16 16 16 16 16 16 16 15 16 16 16 16 16 16 16 16 16 16 16 16 16 16 16 16 16 15 15 15 15 16 16 16 15 15 15 15 15 15 15 15
17 16 16 16 16 16 15 15 15 15 15 15 15 15 15 15 15 15 15 15 16 16 16 16 16 16 16 16 16 16 16 16 16 15 15 15 15 15 15 15 15 15 15
16 16 16 16 15 15 15 15 15 15 15 15 15 15 15 15 15 15 15 15 15 16 16 16 16 16 16 16 16 16 16 16 15 15 15 15 15 14 14 14 14 14 14
16 16 16 16 15 15 15 15 15 15 15 15 15 15 15 15 15 15 15 15 15 15 16 17 17 17 16 16 16 15 15 15 15 15 15 15 14 14 14 14 14 14 14
16 16 16 16 15 15 15 15 15 15 14 14 14 14 14 14 14 15 15 15 15 15 15 16 16 16 16 16 16 15 15 15 15 15 15 15 14 14 14 14 14 14 14
17 16 16 16 16 15 15 15 15 14 14 14 14 14 14 14 14 14 14 14 14 14 15 16 16 16 16 16 15 15 15 15 15 15 15 14 14 14 14 14 14 14 14
17 16 16 16 15 15 15 15 15 14 14 14 14 13 13 13 13 14 14 14 14 14 14 15 15 15 15 15 15 15 14 14 14 14 14 14 14 14 14 14 14 14 14
17 16 16 16 15 15 15 15 15 14 14 14 14 13 13 13 13 13 13 13 13 13 13 14 14 15 15 15 15 14 14 14 14 14 14 14 14 14 14 14 14 14 14
16 16 16 15 15 15 15 15 15 14 14 14 14 13 13 13 13 13 13 13 13 13 13 13 13 14 14 14 14 14 14 14 14 14 14 14 14 14 14 14 14 14 14
16 16 16 15 15 15 15 15 15 15 14 14 14 14 13 13 13 13 12 12 12 13 13 13 13 13 13 14 14 14 14 13 13 14 14 14 14 14 14 13 13 14 14
15 15 15 15 15 15 15 15 15 15 15 14 14 14 14 13 13 13 13 12 12 12 12 12 12 13 13 13 13 14 14 14 14 14 13 13 14 14 14 13 13 13 13
15 15 15 15 15 15 15 15 15 15 15 14 14 14 14 14 14 13 13 13 13 13 13 13 13 13 13 13 13 14 14 14 13 13 13 13 13 14 14 13 13 13 13
14 14 14 14 15 15 15 15 14 14 14 14 14 14 14 14 14 14 14 13 13 13 13 13 13 13 13 13 14 14 14 13 14 14 14 13 14 14 13 13 13 13 13
13 13 13 14 14 14 14 14 14 14 14 14 14 14 14 14 14 14 14 14 14 14 13 13 13 13 13 13 13 13 13 13 13 13 14 13 13 13 13 13 14 13 13
Wind_Speed
7 5 4 6 6 6 4 3 3 2 4 6 8 8 6 7 7 7 7 7 6 6 6 7 7 7 7 7 8 9 9 9 10 10 9 8 6 5 4 4 5 5 5
8 6 5 4 6 7 6 3 3 3 5 6 6 7 7 7 7 8 8 8 8 7 7 8 8 8 8 8 8 8 8 8 8 8 8 8 7 6 5 4 4 5 5
13 8 7 6 6 9 5 4 4 4 5 5 6 6 5 6 6 7 8 9 10 9 9 9 9 9 9 8 8 8 7 6 6 6 7 7 7 6 5 4 3 4 4
18 11 8 8 9 8 4 5 4 4 4 4 4 4 4 5 5 6 7 8 9 9 10 10 10 9 8 8 8 7 7 6 5 5 5 6 6 6 6 4 2 2 3
16 12 9 8 9 5 4 6 4 4 4 4 4 4 4 5 5 6 4 6 8 9 9 10 10 9 8 7 6 6 6 6 6 5 5 4 4 4 5 4 3 1 1
10 9 6 8 7 5 5 5 5 4 4 5 4 4 3 4 5 5 5 5 7 8 8 8 8 8 8 7 5 5 5 6 7 6 5 3 2 3 4 4 4 3 1
7 5 5 6 6 7 8 8 5 5 3 3 4 3 4 3 3 4 4 4 5 6 7 7 6 6 6 8 7 6 7 8 8 7 5 3 2 1 2 4 5 4 3
6 5 5 5 5 5 8 8 6 5 3 3 4 4 2 3 2 0 3 5 6 5 6 7 7 6 6 7 9 9 9 8 8 7 6 4 3 1 0 1 3 3 4
6 6 6 6 5 5 7 8 8 8 6 3 3 4 4 4 3 2 2 4 5 4 4 7 9 8 7 7 7 8 8 7 6 6 5 5 5 4 3 2 1 0 1
5 7 6 7 6 5 6 8 8 6 7 5 3 2 3 4 4 2 2 2 4 5 6 6 9 11 9 9 7 7 7 6 6 5 6 6 6 6 5 4 3 2 2
4 5 6 6 7 6 7 7 7 7 6 6 5 3 2 1 2 3 3 3 2 3 4 6 7 10 12 11 10 8 7 6 5 5 5 6 7 8 7 7 6 4 3
2 4 5 6 7 6 7 7 7 8 7 6 6 5 4 3 3 2 2 3 4 4 4 4 6 9 13 13 12 11 9 7 5 4 4 4 4 5 5 6 6 5 4
2 3 4 5 5 6 7 6 7 8 8 8 8 6 5 5 4 3 2 2 3 3 2 3 5 9 13 15 14 14 11 9 7 5 4 3 3 3 4 4 4 5 5
3 3 3 4 5 6 6 6 6 7 8 9 9 8 6 6 5 5 4 4 3 2 3 5 4 7 12 15 16 17 14 12 10 8 6 4 3 2 3 3 4 5 6
2 3 3 3 3 4 5 5 5 6 6 7 8 8 7 6 6 6 5 5 5 5 7 6 5 7 11 14 17 17 16 14 13 10 8 6 3 2 1 2 3 4 4
3 4 4 3 3 3 3 3 3 4 5 6 6 8 8 6 7 7 6 5 4 5 6 7 7 5 7 12 16 17 17 16 15 13 11 8 6 4 2 1 2 3 4
4 5 4 4 4 3 3 3 2 2 3 4 5 6 8 8 7 7 6 5 4 4 5 4 4 3 7 7 9 13 15 15 15 16 14 12 9 7 4 3 3 4 4
5 5 5 4 4 5 4 4 3 3 3 3 4 5 6 6 7 7 7 7 5 4 4 3 3 3 5 6 7 7 9 12 14 16 16 14 12 10 7 5 4 4 4
6 5 5 5 5 5 5 5 4 3 3 4 4 4 5 7 8 6 7 7 6 4 3 3 2 1 1 2 3 4 4 5 10 13 16 16 14 12 10 8 6 5 4
7 7 6 6 6 6 6 5 5 4 3 3 3 3 4 6 7 8 8 8 8 6 4 3 1 1 1 2 3 3 4 5 6 7 12 14 15 14 13 10 9 7 6
7 7 6 6 6 6 6 7 6 6 5 4 3 3 3 4 7 7 6 7 8 6 5 3 2 1 2 2 4 4 6 4 5 5 5 6 8 9 12 13 12 11 9
5 5 6 7 7 7 9 12 9 7 6 6 5 5 4 5 6 9 9 10 10 7 6 4 3 3 4 4 4 5 5 4 5 5 6 5 5 7 9 13 15 14 13
3 5 6 6 7 9 11 12 14 8 7 7 7 6 6 6 8 6 8 10 10 11 10 7 6 6 5 6 5 6 7 7 8 5 6 6 5 7 8 14 18 18 17
2 3 5 6 6 8 11 12 13 9 7 7 7 7 8 7 8 9 7 7 8 9 11 9 9 9 9 8 7 8 8 7 3 3 6 6 5 6 6 12 18 21 21
2 1 2 3 5 6 8 9 8 5 4 5 5 6 7 8 11 13 9 9 8 8 11 15 15 14 15 14 9 5 4 5 5 5 6 6 4 4 3 5 13 21 24
3 2 3 2 1 2 4 5 7 4 4 3 2 3 5 7 10 11 10 10 10 9 6 6 8 10 8 8 9 8 6 5 4 4 5 6 4 4 3 3 3 9 15
Wind_Direction
177 184 194 209 222 229 236 249 248 192 138 137 139 130 121 114 102 89 84 92 100 123 129 128 125 123 127 136 146 152 155 157 156 156 156 155 151 146 134 110 89 73 61
182 185 193 208 225 227 225 209 195 138 115 123 130 134 129 120 105 95 88 88 96 107 116 118 117 117 117 119 125 136 147 155 159 162 164 166 164 158 149 125 97 77 60
191 189 193 203 223 228 204 167 155 121 111 117 127 139 137 129 117 106 97 90 90 97 106 110 110 111 113 115 119 123 129 139 149 159 168 173 174 171 164 148 109 77 56
193 191 194 201 209 207 171 155 151 121 113 119 126 139 144 141 136 128 112 103 96 92 93 97 97 99 106 113 116 120 125 129 132 141 154 167 176 181 176 166 138 74 43
192 189 194 198 193 178 169 166 156 139 136 138 134 122 133 154 160 153 143 132 121 112 101 93 88 84 88 99 110 115 123 128 128 127 129 144 167 184 180 176 175 154 20
194 190 192 195 183 170 170 165 153 141 148 155 134 96 92 146 162 160 169 163 149 138 126 114 97 80 74 73 85 109 116 122 117 116 120 127 149 176 188 193 194 199 236
188 188 197 197 189 180 176 164 144 142 140 127 98 63 21 41 133 162 165 162 169 167 152 142 124 104 79 65 67 97 110 112 105 98 91 89 111 172 209 211 207 212 220
176 181 187 195 201 188 175 167 148 143 152 143 131 113 57 358 350 131 176 175 179 173 174 172 152 135 116 91 77 83 88 96 92 82 69 62 70 90 142 219 220 224 233
183 178 183 189 204 201 190 180 166 153 163 171 147 145 153 203 244 293 227 197 179 177 182 180 178 165 150 129 107 92 86 82 84 77 70 68 72 78 75 71 71 239 252
195 188 186 184 191 201 201 196 178 165 157 167 171 174 169 160 159 198 281 257 208 192 184 178 182 182 175 158 141 123 108 96 94 88 83 76 71 70 68 65 60 52 29
214 195 191 188 191 196 204 204 186 178 168 165 166 165 165 148 133 146 200 238 245 231 199 178 174 179 181 174 165 154 140 124 111 100 88 78 71 68 62 55 49 44 31
229 206 193 196 198 198 203 205 191 185 188 175 171 170 169 169 179 162 173 203 214 236 216 190 176 179 183 183 180 172 163 156 145 131 110 92 76 64 56 48 41 36 35
228 216 190 193 196 200 200 194 191 193 196 194 189 191 191 192 164 161 168 194 207 233 208 212 198 184 185 188 188 180 177 175 171 163 147 123 96 73 55 40 28 23 34
216 202 182 187 191 191 195 193 198 204 204 207 204 196 198 199 177 169 170 171 181 221 224 222 200 194 189 188 190 184 184 185 184 182 175 159 129 92 61 38 18 10 18
185 165 158 163 168 173 184 188 207 214 208 213 215 207 204 202 186 180 175 178 174 196 222 222 204 199 191 189 190 188 188 191 193 194 192 186 177 157 69 17 3 355 353
157 146 145 150 151 149 153 167 193 208 210 219 217 216 212 203 195 188 176 174 185 192 217 221 210 193 184 193 195 192 194 196 198 199 201 201 199 201 219 281 322 330 329
173 172 172 171 175 177 175 174 193 196 210 225 225 218 218 201 198 192 176 165 175 181 217 236 214 191 179 181 180 193 197 198 203 204 205 207 208 212 222 249 288 309 310
188 190 187 187 193 196 195 195 208 216 227 235 231 219 219 208 199 188 177 170 169 178 195 214 207 179 187 188 176 184 195 204 206 210 210 211 213 217 223 234 257 281 292
200 202 199 205 209 207 205 206 206 216 233 244 239 230 224 206 196 185 174 168 162 166 173 186 194 178 163 147 149 191 196 202 210 217 216 217 218 220 224 229 240 252 260
208 212 213 216 218 214 209 206 202 208 223 238 238 235 226 209 198 186 179 171 162 157 156 152 154 167 175 147 147 176 199 213 217 212 213 214 218 223 227 231 235 241 239
221 220 220 228 228 220 218 207 200 202 207 220 230 232 229 218 206 191 181 171 163 160 151 143 156 168 191 169 196 195 209 206 223 206 198 207 209 219 225 230 233 234 231
235 228 225 224 226 230 225 210 197 196 198 208 221 228 234 231 220 207 193 178 168 163 157 156 175 208 226 221 210 201 198 187 234 211 188 221 195 221 223 224 228 227 226
247 237 234 225 225 232 231 217 205 193 198 208 215 217 228 228 221 213 207 199 193 191 182 175 196 218 228 224 209 210 204 208 221 188 175 220 206 229 225 225 225 223 222
271 245 240 231 229 239 235 225 210 196 200 210 215 217 224 235 220 208 209 213 214 212 208 208 213 223 231 230 217 219 218 223 238 190 172 207 206 222 226 219 224 220 218
344 308 268 237 228 252 248 228 193 179 201 216 223 227 226 232 235 214 203 215 226 233 230 225 225 229 234 238 227 213 201 194 228 228 193 203 206 207 226 228 226 222 216
359 2 11 5 320 290 280 236 186 169 193 216 241 262 247 234 236 215 203 208 222 232 220 220 225 234 237 242 229 210 201 198 209 240 204 192 187 163 240 255 224 218 214
Height
1534 1535 1537 1538 1539 1540 1541 1541 1541 1541 1542 1543 1544 1544 1543 1543 1542 1542 1542 1542 1542 1543 1544 1544 1544 1545 1545 1546 1547 1548 1549 1549 1550 1550 1551 1552 1552 1552 1553 1553 1552 1552 1551
1534 1535 1537 1539 1540 1540 1541 1542 1542 1542 1543 1543 1544 1544 1544 1544 1543 1543 1543 1543 1543 1544 1544 1545 1545 1545 1546 1546 1547 1548 1548 1549 1550 1550 1550 1551 1551 1551 1552 1552 1552 1551 1551
1533 1535 1537 1538 1539 1540 1541 1542 1543 1544 1544 1544 1544 1544 1545 1545 1545 1544 1544 1544 1544 1544 1545 1545 1546 1546 1546 1547 1547 1547 1548 1549 1549 1549 1550 1550 1550 1551 1551 1551 1551 1551 1550
1531 1533 1535 1536 1538 1539 1541 1542 1543 1544 1545 1545 1545 1545 1545 1545 1546 1546 1546 1546 1545 1546 1546 1547 1547 1547 1547 1547 1547 1547 1547 1548 1548 1548 1549 1549 1549 1549 1549 1549 1550 1550 1549
1529 1531 1533 1534 1536 1538 1539 1541 1542 1543 1544 1545 1546 1546 1546 1545 1546 1546 1547 1547 1547 1547 1547 1548 1548 1548 1548 1548 1547 1547 1547 1547 1547 1547 1548 1548 1548 1548 1548 1548 1549 1549 1548
1527 1529 1530 1532 1534 1535 1537 1539 1540 1542 1543 1545 1546 1546 1546 1546 1546 1546 1547 1547 1547 1548 1548 1548 1549 1549 1549 1549 1548 1548 1547 1547 1547 1547 1547 1547 1547 1547 1547 1547 1547 1547 1547
1525 1526 1527 1529 1531 1532 1534 1536 1538 1540 1542 1543 1545 1546 1546 1546 1546 1546 1547 1547 1547 1548 1548 1549 1549 1550 1550 1550 1549 1549 1548 1548 1548 1548 1547 1547 1547 1547 1546 1546 1546 1546 1546
1522 1523 1524 1526 1527 1529 1531 1533 1535 1536 1539 1540 1542 1544 1545 1547 1546 1546 1546 1547 1547 1548 1549 1549 1549 1550 1550 1550 1550 1550 1550 1549 1549 1548 1548 1547 1547 1546 1546 1545 1545 1545 1545
1519 1520 1521 1522 1524 1525 1527 1528 1530 1533 1535 1537 1539 1541 1542 1543 1544 1545 1545 1546 1547 1547 1548 1549 1549 1550 1550 1551 1551 1551 1550 1550 1550 1549 1548 1547 1547 1546 1545 1545 1545 1544 1544
1515 1516 1518 1519 1520 1521 1523 1525 1526 1528 1531 1533 1535 1537 1540 1540 1541 1542 1544 1544 1545 1546 1547 1547 1548 1549 1550 1550 1550 1550 1550 1550 1550 1549 1548 1547 1547 1546 1545 1545 1544 1544 1543
1512 1513 1514 1514 1515 1516 1518 1520 1522 1524 1526 1529 1531 1533 1536 1537 1538 1539 1540 1542 1543 1544 1545 1546 1547 1547 1548 1549 1549 1549 1549 1549 1549 1549 1548 1548 1547 1546 1545 1545 1544 1543 1543
1509 1510 1510 1511 1511 1512 1514 1516 1517 1519 1521 1524 1526 1529 1532 1533 1535 1536 1538 1539 1540 1542 1543 1544 1545 1546 1546 1547 1548 1548 1548 1548 1548 1548 1548 1547 1547 1546 1545 1544 1544 1543 1542
1506 1507 1507 1507 1508 1508 1509 1511 1513 1514 1515 1518 1521 1524 1527 1529 1531 1533 1535 1537 1538 1540 1541 1542 1542 1544 1545 1545 1546 1546 1546 1547 1547 1547 1546 1546 1545 1545 1544 1543 1542 1542 1541
1504 1504 1504 1504 1504 1505 1505 1506 1508 1509 1511 1513 1516 1518 1521 1524 1526 1529 1531 1534 1535 1537 1537 1538 1540 1541 1542 1544 1544 1544 1545 1545 1545 1545 1545 1544 1544 1543 1542 1541 1540 1540 1540
1502 1502 1502 1501 1501 1502 1502 1503 1504 1505 1506 1508 1510 1513 1515 1518 1521 1523 1526 1529 1532 1533 1534 1535 1536 1538 1540 1541 1542 1543 1543 1543 1543 1543 1543 1543 1542 1541 1540 1539 1538 1538 1538
1500 1500 1500 1499 1499 1499 1499 1500 1500 1501 1502 1503 1505 1507 1509 1512 1515 1518 1520 1523 1526 1529 1530 1532 1533 1535 1537 1538 1540 1541 1541 1542 1542 1542 1542 1541 1540 1539 1538 1537 1536 1536 1536
1499 1499 1498 1498 1498 1498 1498 1498 1498 1498 1498 1499 1500 1501 1503 1505 1508 1511 1514 1517 1520 1523 1525 1528 1530 1532 1534 1535 1537 1538 1539 1539 1540 1540 1540 1539 1538 1537 1536 1535 1534 1534 1534
1498 1498 1497 1497 1497 1497 1497 1497 1496 1496 1496 1496 1496 1496 1497 1499 1502 1505 1508 1511 1514 1518 1521 1523 1526 1528 1530 1531 1533 1535 1536 1537 1537 1538 1538 1537 1537 1536 1535 1533 1532 1532 1532
1497 1497 1496 1496 1496 1496 1496 1496 1495 1495 1494 1493 1493 1493 1494 1495 1497 1499 1501 1504 1508 1511 1515 1519 1521 1524 1526 1528 1529 1531 1532 1533 1534 1534 1535 1535 1534 1534 1533 1532 1531 1530 1529
1496 1495 1495 1495 1495 1495 1495 1495 1495 1494 1493 1492 1492 1491 1492 1492 1493 1494 1496 1499 1502 1505 1509 1513 1517 1520 1522 1523 1525 1526 1527 1528 1530 1531 1531 1531 1531 1531 1530 1530 1529 1528 1527
1494 1494 1494 1494 1494 1494 1494 1494 1494 1493 1493 1492 1491 1491 1490 1490 1491 1492 1493 1495 1497 1499 1502 1507 1512 1515 1518 1519 1521 1522 1523 1524 1525 1526 1526 1527 1527 1527 1527 1527 1526 1525 1524
1491 1491 1491 1491 1491 1492 1492 1492 1492 1492 1492 1491 1491 1491 1490 1490 1490 1491 1491 1493 1494 1496 1498 1503 1507 1510 1513 1516 1517 1518 1519 1519 1519 1521 1521 1521 1522 1523 1523 1523 1523 1522 1521
1487 1488 1488 1488 1488 1489 1489 1490 1490 1490 1490 1490 1490 1490 1490 1490 1490 1491 1491 1493 1494 1496 1498 1501 1503 1506 1509 1511 1513 1513 1514 1514 1514 1516 1516 1516 1517 1517 1519 1519 1519 1519 1518
1483 1484 1484 1484 1484 1485 1486 1486 1487 1487 1488 1488 1489 1489 1489 1489 1490 1490 1491 1492 1493 1495 1496 1498 1500 1503 1505 1507 1508 1509 1509 1510 1510 1510 1511 1510 1511 1512 1514 1514 1514 1515 1515
1479 1479 1479 1480 1480 1481 1482 1483 1484 1484 1485 1486 1486 1487 1487 1488 1488 1489 1489 1490 1491 1492 1494 1496 1498 1499 1500 1502 1503 1503 1504 1504 1504 1505 1506 1505 1505 1507 1508 1509 1510 1510 1511
1475 1475 1475 1476 1477 1478 1478 1479 1480 1481 1481 1482 1483 1484 1485 1485 1486 1486 1487 1487 1488 1490 1491 1493 1494 1495 1496 1497 1498 1498 1499 1499 1499 1499 1500 1501 1500 1502 1502 1503 1505 1506 1506